AXM722B WMKL-WMKP

Flight info

Callsign AXM722B
Flight time 0h 17m
Altitude 11000
Route KAPKO1B KAPKO DCT OMBOK
Aircraft A320/M-SDE3FGHIRWY/LB1

Departure

Time 2026-04-18 11:41
Airport Langkawi International Airport (WMKL)

Arrival

Time 2026-04-18 11:58
Airport Penang International Airport (WMKP)
Time Latitude Longitude Altitude Speed Heading
2026-04-18 11:17 6.33919 99.73141 32 ft 0 kts 303°
2026-04-18 11:31 6.33919 99.73142 32 ft 2 kts 303°
2026-04-18 11:32 6.33904 99.73162 31 ft 4 kts 314°
2026-04-18 11:32 6.33883 99.73178 31 ft 4 kts 342°
2026-04-18 11:32 6.33862 99.73179 32 ft 2 kts 33°
2026-04-18 11:32 6.33857 99.73176 32 ft 0 kts 34°
2026-04-18 11:35 6.33895 99.73202 32 ft 13 kts 35°
2026-04-18 11:35 6.33963 99.73249 32 ft 11 kts 34°
2026-04-18 11:35 6.34032 99.73295 31 ft 10 kts 33°
2026-04-18 11:36 6.34105 99.73348 31 ft 18 kts 44°
2026-04-18 11:36 6.34153 99.73439 32 ft 11 kts 77°
2026-04-18 11:36 6.34196 99.73510 32 ft 11 kts 44°
2026-04-18 11:36 6.34205 99.73521 32 ft 0 kts 54°
2026-04-18 11:37 6.34264 99.73550 31 ft 13 kts 30°
2026-04-18 11:37 6.34343 99.73603 32 ft 20 kts 34°
2026-04-18 11:37 6.34448 99.73689 30 ft 17 kts 60°
2026-04-18 11:37 6.34443 99.73752 32 ft 0 kts 116°
2026-04-18 11:38 6.34421 99.73788 32 ft 11 kts 126°
2026-04-18 11:38 6.34374 99.73816 32 ft 5 kts 185°
2026-04-18 11:39 6.34354 99.73806 32 ft 1 kts 206°
2026-04-18 11:39 6.34353 99.73805 30 ft 0 kts 210°
2026-04-18 11:39 6.34316 99.73782 30 ft 26 kts 213°
2026-04-18 11:40 6.33974 99.73542 32 ft 90 kts 214°
2026-04-18 11:40 6.33023 99.72896 32 ft 152 kts 214°
2026-04-18 11:40 6.32402 99.72468 67 ft 173 kts 214°
2026-04-18 11:40 6.31396 99.71783 532 ft 181 kts 214°
2026-04-18 11:41 6.30293 99.71056 915 ft 199 kts 213°
2026-04-18 11:41 6.29018 99.70364 1297 ft 220 kts 193°
2026-04-18 11:41 6.27452 99.70507 1688 ft 241 kts 156°
2026-04-18 11:41 6.25941 99.71395 2078 ft 265 kts 144°
2026-04-18 11:42 6.24437 99.72581 2636 ft 279 kts 141°
2026-04-18 11:42 6.22955 99.73822 3627 ft 277 kts 140°
2026-04-18 11:42 6.21456 99.75045 4524 ft 279 kts 141°
2026-04-18 11:42 6.19911 99.76250 5362 ft 283 kts 142°
2026-04-18 11:43 6.18319 99.77444 6147 ft 289 kts 143°
2026-04-18 11:43 6.16693 99.78638 6921 ft 291 kts 142°
2026-04-18 11:43 6.15043 99.79832 7728 ft 292 kts 142°
2026-04-18 11:43 6.13392 99.81010 8495 ft 293 kts 142°
2026-04-18 11:44 6.11717 99.82204 9248 ft 296 kts 142°
2026-04-18 11:44 6.10026 99.83408 9987 ft 299 kts 143°
2026-04-18 11:44 6.08279 99.84653 10335 ft 319 kts 143°
2026-04-18 11:44 6.06404 99.85987 10502 ft 342 kts 143°
2026-04-18 11:45 6.04402 99.87412 10628 ft 362 kts 143°
2026-04-18 11:45 6.02302 99.88912 10877 ft 377 kts 144°
2026-04-18 11:45 6.00141 99.90451 10986 ft 388 kts 144°
2026-04-18 11:45 5.97888 99.92058 10988 ft 405 kts 144°
2026-04-18 11:46 5.95533 99.93644 10987 ft 410 kts 149°
2026-04-18 11:46 5.92975 99.94926 10992 ft 411 kts 154°
2026-04-18 11:46 5.90393 99.96164 10990 ft 411 kts 154°
2026-04-18 11:46 5.87812 99.97401 10994 ft 411 kts 154°
2026-04-18 11:47 5.85229 99.98640 10989 ft 411 kts 154°
2026-04-18 11:47 5.82647 99.99878 10990 ft 411 kts 154°
2026-04-18 11:47 5.80063 100.01116 10765 ft 410 kts 154°
2026-04-18 11:47 5.77528 100.02330 10511 ft 397 kts 154°
2026-04-18 11:48 5.75153 100.03608 10256 ft 380 kts 145°
2026-04-18 11:48 5.73160 100.05249 10015 ft 363 kts 133°
2026-04-18 11:48 5.71606 100.07169 9830 ft 345 kts 122°
2026-04-18 11:48 5.70395 100.09197 9706 ft 334 kts 119°
2026-04-18 11:49 5.69230 100.11161 9584 ft 321 kts 119°
2026-04-18 11:49 5.68101 100.13048 9462 ft 310 kts 119°
2026-04-18 11:49 5.67018 100.14856 9330 ft 296 kts 119°
2026-04-18 11:49 5.65960 100.16614 9200 ft 294 kts 119°
2026-04-18 11:50 5.64911 100.18371 9078 ft 293 kts 118°
2026-04-18 11:50 5.63871 100.20124 8960 ft 292 kts 118°
2026-04-18 11:50 5.62835 100.21874 8825 ft 291 kts 118°
2026-04-18 11:50 5.61799 100.23616 8709 ft 290 kts 118°
2026-04-18 11:51 5.60777 100.25331 8549 ft 291 kts 119°
2026-04-18 11:51 5.59740 100.27065 8226 ft 289 kts 119°
2026-04-18 11:51 5.58710 100.28789 7848 ft 287 kts 119°
2026-04-18 11:51 5.57687 100.30504 7459 ft 286 kts 119°
2026-04-18 11:52 5.56668 100.32211 7077 ft 285 kts 119°
2026-04-18 11:52 5.55648 100.33916 6692 ft 284 kts 119°
2026-04-18 11:52 5.54497 100.35520 6309 ft 285 kts 130°
2026-04-18 11:52 5.53167 100.36987 5909 ft 282 kts 130°
2026-04-18 11:53 5.51839 100.38434 5514 ft 281 kts 131°
2026-04-18 11:53 5.50513 100.39871 5124 ft 280 kts 131°
2026-04-18 11:53 5.49197 100.41300 4732 ft 278 kts 131°
2026-04-18 11:53 5.47707 100.42488 4344 ft 274 kts 157°
2026-04-18 11:54 5.45846 100.42694 3971 ft 271 kts 193°
2026-04-18 11:54 5.44192 100.41871 3635 ft 265 kts 219°
2026-04-18 11:54 5.42877 100.40618 3287 ft 255 kts 229°
2026-04-18 11:54 5.41714 100.39286 2937 ft 249 kts 231°
2026-04-18 11:55 5.40596 100.38019 2606 ft 236 kts 229°
2026-04-18 11:55 5.39510 100.36852 2291 ft 223 kts 226°
2026-04-18 11:55 5.38451 100.35779 1989 ft 210 kts 224°
2026-04-18 11:55 5.37428 100.34780 1738 ft 197 kts 222°
2026-04-18 11:56 5.36469 100.33873 1476 ft 181 kts 221°
2026-04-18 11:56 5.35584 100.33046 1242 ft 165 kts 220°
2026-04-18 11:56 5.34778 100.32299 1004 ft 152 kts 220°
2026-04-18 11:56 5.34016 100.31599 806 ft 146 kts 219°
2026-04-18 11:57 5.33269 100.30919 631 ft 144 kts 219°
2026-04-18 11:57 5.32530 100.30247 454 ft 144 kts 219°
2026-04-18 11:57 5.31790 100.29575 283 ft 142 kts 220°
2026-04-18 11:57 5.31058 100.28909 117 ft 142 kts 221°
2026-04-18 11:58 5.30337 100.28246 33 ft 135 kts 221°
2026-04-18 11:58 5.29702 100.27710 27 ft 96 kts 216°
2026-04-18 11:58 5.29355 100.27376 24 ft 40 kts 225°
2026-04-18 11:58 5.29182 100.27199 27 ft 36 kts 223°
2026-04-18 11:59 5.29068 100.27066 26 ft 17 kts 279°
2026-04-18 11:59 5.29116 100.26989 24 ft 10 kts 311°
2026-04-18 11:59 5.29165 100.26934 23 ft 13 kts 313°
2026-04-18 11:59 5.29227 100.26867 23 ft 13 kts 313°
2026-04-18 12:00 5.29256 100.26798 23 ft 10 kts 244°
2026-04-18 12:00 5.29207 100.26744 23 ft 11 kts 223°
2026-04-18 12:00 5.29187 100.26690 23 ft 8 kts 317°
2026-04-18 12:00 5.29219 100.26652 23 ft 0 kts 313°